Location: Atbuku
(36.4936°N, 30.4362°E)
Time: 19:27:46
(UTC+00:00)

Cosmos 1607 - Pass Details

Date: 14 March 2026
Orbit: 919 x 983 km, 65.0° (Epoch: 21 April)

Event Time Altitude Azimuth Distance (km) Brightness Sun altitude
Rises 17:44:54 0° 326° (NNW) 3,649 7.7 -20.8°
Reaches altitude 10° 17:47:28 10° 324° (NW) 2,708 7.0 -21.3°
Maximum altitude 17:53:43 63° 245° (WSW) 1,082 4.4 -22.5°
Enters shadow 17:58:26 18° 169° (SSE) 2,169 5.6 -23.5°
